Waarnemingen

Advertentie
Mijn weer
Talavera de la Reina, Spanje (8274): temperatuur & dauwpunt: 16.09.2020 12:00:00 - 22.09.2020 12:00:00 (CEST)Talavera de la Reina, Spanje (8274): windsnelheid & windstoten: 16.09.2020 12:00:00 - 22.09.2020 12:00:00 (CEST)Talavera de la Reina, Spanje (8274): windrichting: 16.09.2020 12:00:00 - 22.09.2020 12:00:00 (CEST)Talavera de la Reina, Spanje (8274): luchtdruk: 16.09.2020 12:00:00 - 22.09.2020 12:00:00 (CEST)Talavera de la Reina, Spanje (8274): zicht: 16.09.2020 12:00:00 - 22.09.2020 12:00:00 (CEST)Talavera de la Reina, Spanje (8274): Zonneschijnduur: 16.09.2020 12:00:00 - 22.09.2020 12:00:00 (CEST)Talavera de la Reina, Spanje (8274): neerslag: 16.09.2020 12:00:00 - 22.09.2020 12:00:00 (CEST)
Datum & Tijd tt [°C] td [°C] ff [km/u] ff [kn] fx [km/u] fx [kn] dd ppp [hPa] vv [km] sd [min] rr [mm]
22.09.2020 12:00:00 - - - - - - - - - - -
22.09.2020 11:00:00 19,1 12,6 3 1 7 4 WZW 1016,9 20 60 0,0
22.09.2020 10:00:00 - - - - - - - - - - -
22.09.2020 09:00:00 13,1 11,1 1 1 4 2 O 1017,4 17 16 0,0
22.09.2020 08:00:00 12,8 10,6 1 1 5 3 OZO 1017,0 13 0 -
22.09.2020 07:00:00 13,4 11,2 3 1 7 4 O 1016,7 19 0 0,0
22.09.2020 06:00:00 13,3 11,2 0 0 6 3 N 1016,6 9 0 0,0
22.09.2020 05:00:00 - - - - - - - - - - -
22.09.2020 04:00:00 - - - - - - - - - - -
22.09.2020 03:00:00 14,3 11,8 3 1 8 4 W 1017,5 9 0 0,0
22.09.2020 02:00:00 14,5 11,7 3 1 4 2 W 1017,8 18 0 -
22.09.2020 01:00:00 15,7 12,1 1 1 11 6 Z 1017,5 20 0 0,0
22.09.2020 00:00:00 16,9 11,2 5 3 12 6 WZW 1017,3 20 0 0,0
21.09.2020 23:00:00 18,6 11,2 4 2 11 6 ZW 1016,9 20 0 0,0
21.09.2020 22:00:00 18,0 10,9 4 2 12 7 W 1016,8 20 0 0,0
21.09.2020 21:00:00 19,7 11,0 5 3 22 12 WNW 1016,4 20 12 0,0
21.09.2020 20:00:00 23,7 8,1 11 6 26 14 WNW 1015,6 20 60 -
21.09.2020 19:00:00 25,4 8,8 14 8 26 14 W 1015,3 20 60 0,0
21.09.2020 18:00:00 25,7 9,0 13 7 27 15 WNW 1015,4 20 60 0,0
21.09.2020 17:00:00 25,6 8,1 8 4 29 16 W 1015,9 20 60 0,0
21.09.2020 16:00:00 24,6 11,9 10 6 29 15 W 1016,4 20 59 0,0
21.09.2020 15:00:00 24,0 11,7 9 5 24 13 W 1017,2 20 60 0,0
21.09.2020 14:00:00 23,1 12,4 12 7 23 12 W 1017,9 20 60 -
21.09.2020 13:00:00 - - - - - - - - - - -
21.09.2020 12:00:00 20,2 14,5 5 3 13 7 W 1019,0 20 60 0,0
21.09.2020 11:00:00 - - - - - - - - - - -
21.09.2020 10:00:00 15,1 13,7 2 1 4 2 O 1019,3 20 41 0,0
21.09.2020 09:00:00 13,5 12,2 3 1 6 4 ONO 1019,4 12 0 0,2
21.09.2020 08:00:00 13,6 12,3 4 2 6 3 ONO 1018,7 14 0 -
21.09.2020 07:00:00 13,7 12,2 2 1 7 4 ONO 1018,5 12 0 0,0
21.09.2020 06:00:00 14,1 12,6 1 1 5 3 ONO 1018,5 14 0 0,0
21.09.2020 05:00:00 14,5 13,1 3 2 6 4 ONO 1018,3 19 0 0,0
21.09.2020 04:00:00 14,5 12,8 2 1 4 2 ONO 1018,6 2,7 0 0,0
21.09.2020 03:00:00 14,7 13,0 1 1 5 3 NNO 1018,9 15 0 0,0
21.09.2020 02:00:00 15,4 13,6 1 1 6 4 ONO 1018,8 16 0 -
21.09.2020 01:00:00 16,1 14,1 2 1 5 3 ONO 1018,8 15 0 0,0
21.09.2020 00:00:00 - - - - - - - - - - -
20.09.2020 23:00:00 - - - - - - - - - - -
20.09.2020 22:00:00 19,1 15,0 2 1 8 5 WZW 1017,9 20 0 0,0
20.09.2020 21:00:00 21,3 14,4 5 3 21 11 WZW 1016,9 20 15 0,0
20.09.2020 20:00:00 22,6 13,9 15 8 31 17 W 1016,4 20 59 -
20.09.2020 19:00:00 23,3 14,3 22 12 37 20 W 1016,1 20 60 0,0
20.09.2020 18:00:00 23,0 14,3 16 9 39 21 W 1016,4 20 58 0,0
20.09.2020 17:00:00 - - - - - - - - - - -
20.09.2020 16:00:00 - - - - - - - - - - -
20.09.2020 15:00:00 21,5 15,3 14 8 30 16 W 1017,9 20 33 0,0
20.09.2020 14:00:00 19,6 15,9 13 7 34 18 WZW 1018,9 14 18 -
20.09.2020 13:00:00 19,7 15,5 16 8 31 17 WZW 1019,1 20 41 0,0
20.09.2020 12:00:00 - - - - - - - - - - -
20.09.2020 11:00:00 - - - - - - - - - - -
20.09.2020 10:00:00 - - - - - - - - - - -
20.09.2020 09:00:00 17,3 14,6 5 3 12 7 WZW 1018,4 20 0 0,0
20.09.2020 08:00:00 17,0 15,0 5 3 10 6 W 1018,0 20 0 -
20.09.2020 07:00:00 17,5 15,5 7 4 14 8 W 1017,9 20 0 0,0
20.09.2020 06:00:00 17,3 15,3 7 4 15 8 W 1018,0 20 0 0,0
20.09.2020 05:00:00 - - - - - - - - - - -
20.09.2020 04:00:00 - - - - - - - - - - -
20.09.2020 03:00:00 17,9 15,5 1 1 18 10 NW 1018,6 20 0 0,6
20.09.2020 02:00:00 18,6 15,1 4 2 18 10 W 1018,6 20 0 -
20.09.2020 01:00:00 18,8 14,5 3 2 15 8 WNW 1018,3 20 0 0,0
20.09.2020 00:00:00 - - - - - - - - - - -
19.09.2020 23:00:00 - - - - - - - - - - -
19.09.2020 22:00:00 19,4 13,2 5 3 11 6 W 1017,2 20 0 0,0
19.09.2020 21:00:00 20,0 13,0 2 1 11 6 NW 1016,4 20 7 0,0
19.09.2020 20:00:00 21,5 12,8 5 3 18 10 WNW 1015,9 20 5 -
19.09.2020 19:00:00 22,1 13,0 13 7 29 16 WNW 1015,5 20 4 0,0
19.09.2020 18:00:00 22,8 13,3 10 5 34 18 WNW 1015,3 20 28 0,0
19.09.2020 17:00:00 22,9 12,2 16 9 37 20 WNW 1015,4 20 30 0,0
19.09.2020 16:00:00 - - - - - - - - - - -
19.09.2020 15:00:00 21,8 13,9 19 11 39 21 W 1015,9 20 11 0,0
19.09.2020 14:00:00 20,5 13,5 19 10 36 19 W 1016,5 20 4 -
19.09.2020 13:00:00 - - - - - - - - - - -
19.09.2020 12:00:00 18,9 13,3 17 9 34 18 W 1016,6 20 0 0,0
19.09.2020 11:00:00 18,1 14,4 9 5 23 12 W 1016,1 20 0 0,0
19.09.2020 10:00:00 17,8 14,1 11 6 21 11 WZW 1015,5 20 5 0,0
19.09.2020 09:00:00 16,8 14,0 9 5 19 10 WZW 1014,8 20 3 0,0
19.09.2020 08:00:00 16,9 14,1 9 5 16 9 WZW 1014,2 20 0 -
19.09.2020 07:00:00 17,0 14,2 9 5 22 12 WZW 1013,6 20 0 0,0
19.09.2020 06:00:00 16,6 14,4 5 3 12 7 WZW 1013,6 20 0 0,0
19.09.2020 05:00:00 - - - - - - - - - - -
19.09.2020 04:00:00 - - - - - - - - - - -
19.09.2020 03:00:00 16,1 14,6 2 1 8 5 NO 1013,9 20 0 0,2
19.09.2020 02:00:00 16,3 14,8 2 1 11 6 WZW 1014,1 20 0 -
19.09.2020 01:00:00 16,2 14,7 2 1 9 5 ZW 1013,7 20 0 1,2
19.09.2020 00:00:00 16,3 14,8 4 2 29 16 NW 1013,6 7 0 7,2
18.09.2020 23:00:00 - - - - - - - - - - -
18.09.2020 22:00:00 - - - - - - - - - - -
18.09.2020 21:00:00 17,0 15,3 5 3 15 8 O 1012,7 20 0 0,4
18.09.2020 20:00:00 17,3 15,3 6 4 16 9 O 1012,6 20 1 -
18.09.2020 19:00:00 - - - - - - - - - - -
18.09.2020 18:00:00 16,9 15,1 9 5 22 12 O 1013,3 20 14 3,2
18.09.2020 17:00:00 16,1 14,2 8 4 45 24 ZW 1014,7 8 0 17,6
18.09.2020 16:00:00 21,4 16,1 4 2 12 7 ONO 1010,5 20 10 0,0
18.09.2020 15:00:00 22,8 14,9 2 1 10 6 NNW 1011,1 20 8 0,0
18.09.2020 14:00:00 22,7 14,8 5 3 11 6 N 1011,9 20 35 -
18.09.2020 13:00:00 - - - - - - - - - - -
18.09.2020 12:00:00 21,2 16,1 3 2 8 4 NO 1012,8 20 60 0,0
18.09.2020 11:00:00 18,1 16,0 2 1 6 3 ZO 1013,3 20 15 0,0
18.09.2020 10:00:00 16,9 15,4 2 1 9 5 NO 1013,2 16 0 0,0
18.09.2020 09:00:00 16,3 14,8 3 2 18 10 OZO 1012,4 3,3 0 1,6
18.09.2020 08:00:00 16,1 14,6 15 8 23 12 W 1011,8 10 0 -
18.09.2020 07:00:00 16,5 14,9 3 1 9 5 WZW 1011,2 20 0 0,2
18.09.2020 06:00:00 16,4 14,6 4 2 13 7 ZO 1011,3 19 0 1,0
18.09.2020 05:00:00 16,0 13,9 8 4 32 17 NW 1011,6 18 0 3,8
18.09.2020 04:00:00 - - - - - - - - - - -
18.09.2020 03:00:00 18,3 16,3 3 2 20 11 O 1011,0 13 0 9,6
18.09.2020 02:00:00 18,8 17,1 8 4 14 8 O 1011,1 4,2 0 -
18.09.2020 01:00:00 - - - - - - - - - - -
18.09.2020 00:00:00 18,6 16,7 3 1 7 4 O 1012,2 13 0 0,0
17.09.2020 23:00:00 18,6 16,6 4 2 24 13 ONO 1012,5 14 0 4,0
17.09.2020 22:00:00 - - - - - - - - - - -
17.09.2020 21:00:00 20,4 16,8 5 3 41 22 O 1011,0 20 0 0,6
17.09.2020 20:00:00 24,8 14,5 3 2 16 9 O 1009,8 20 0 -
17.09.2020 19:00:00 - - - - - - - - - - -
17.09.2020 18:00:00 - - - - - - - - - - -
17.09.2020 17:00:00 25,5 14,9 6 3 12 7 NO 1011,1 20 0 0,0
17.09.2020 16:00:00 - - - - - - - - - - -
17.09.2020 15:00:00 24,6 15,0 3 2 23 12 W 1012,8 20 0 0,0
17.09.2020 14:00:00 25,2 13,8 7 4 21 11 OZO 1013,0 20 0 -
17.09.2020 13:00:00 25,4 15,2 8 4 24 13 O 1013,4 20 49 0,0
17.09.2020 12:00:00 23,6 16,1 10 5 23 13 ONO 1014,3 20 60 0,0
17.09.2020 11:00:00 22,2 15,3 10 6 26 14 O 1014,7 20 23 0,0
17.09.2020 10:00:00 20,3 15,1 6 3 24 13 O 1015,0 20 0 0,0
17.09.2020 09:00:00 19,3 15,0 4 2 15 8 O 1014,7 20 0 0,0
17.09.2020 08:00:00 19,1 14,3 5 3 18 10 O 1014,5 20 0 -
17.09.2020 07:00:00 19,9 14,2 6 3 28 15 O 1014,6 20 0 0,0
17.09.2020 06:00:00 21,2 13,2 5 3 20 11 O 1014,2 20 0 0,0
17.09.2020 05:00:00 21,8 13,5 7 4 20 11 ZO 1014,6 20 0 0,0
17.09.2020 04:00:00 22,1 13,8 3 1 24 13 O 1014,4 20 0 0,0
17.09.2020 03:00:00 22,4 13,5 5 3 22 12 O 1014,6 20 0 0,0
17.09.2020 02:00:00 22,3 13,7 2 1 16 9 ONO 1014,6 20 0 -
17.09.2020 01:00:00 22,5 13,9 6 3 18 10 NO 1014,8 20 0 0,0
17.09.2020 00:00:00 22,7 14,0 3 2 16 9 ONO 1013,7 20 0 0,0
16.09.2020 23:00:00 24,4 11,7 8 4 20 11 WNW 1013,9 20 0 0,0
16.09.2020 22:00:00 25,0 12,5 1 1 11 6 NW 1013,2 20 0 0,0
16.09.2020 21:00:00 27,8 9,6 7 4 27 15 O 1012,2 20 0 0,0
16.09.2020 20:00:00 27,4 14,0 2 1 6 3 W 1012,5 20 0 -
16.09.2020 19:00:00 30,1 12,1 3 2 17 9 NO 1012,2 20 14 0,0
16.09.2020 18:00:00 31,3 9,6 4 2 20 11 ONO 1012,3 20 35 0,0
16.09.2020 17:00:00 32,5 8,7 5 3 26 14 ZO 1012,8 20 60 0,0
16.09.2020 16:00:00 31,6 9,8 6 4 20 11 NO 1013,8 20 60 0,0
16.09.2020 15:00:00 30,8 10,8 6 4 20 11 ONO 1014,9 20 58 0,0
16.09.2020 14:00:00 29,6 10,6 11 6 25 13 O 1016,1 20 56 -
16.09.2020 13:00:00 27,8 10,9 7 4 20 11 O 1017,2 20 60 0,0
16.09.2020 12:00:00 24,6 11,6 5 3 14 8 O 1018,3 20 45 0,0

tt = temperatuur
td = dauwpunt
ff = windsnelheid
fx = windstoten
dd = windrichting
ppp = luchtdruk
vv = zicht
sd = Zonneschijnduur
rr = neerslag

Weerstations in de omgeving